This is the latest recevied weather packets stored in our database for station/object N2PPN. If no packets are shown the sender has not sent any weather packets the latest 1 day(s).
| Time | Temp. | Humidity | Pressure | Rain* | Wind** | Luminosity | Snow |
|---|---|---|---|---|---|---|---|
| 1778069387 | 15° C | 90% | 1013.8 hPa | 0 mm | - | 285 W/m² | - |
| 1778068480 | 15° C | 89% | 1014 hPa | 0 mm | - | 174 W/m² | - |
| 1778068178 | 15° C | 90% | 1014 hPa | 0 mm | - | 120 W/m² | - |
| 1778067875 | 14.44° C | 90% | 1014 hPa | 0 mm | - | 109 W/m² | - |
| 1778066967 | 14.44° C | 91% | 1013.9 hPa | 0 mm | - | 82 W/m² | - |
| 1778066665 | 14.44° C | 91% | 1013.7 hPa | 0 mm | - | 80 W/m² | - |
| 1778066362 | 14.44° C | 92% | 1013.7 hPa | 0 mm | - | 109 W/m² | - |
| 1778065757 | 13.89° C | 93% | 1014 hPa | 0 mm | - | 74 W/m² | - |
| 1778065151 | 13.33° C | 94% | 1013.9 hPa | 0 mm | - | 64 W/m² | - |
| 1778064545 | 13.33° C | 95% | 1013.8 hPa | 0 mm | - | 48 W/m² | - |
| 1778063940 | 13.33° C | 95% | 1013.8 hPa | 0 mm | - | 26 W/m² | - |
| 1778060913 | 13.33° C | 95% | 1013.6 hPa | 0 mm | - | 3 W/m² | - |
| 1778060304 | 13.33° C | 95% | 1013.7 hPa | 0 mm | - | 1 W/m² | - |
| 1778059093 | 13.33° C | 94% | 1013.8 hPa | 0 mm | - | 0 W/m² | - |
| 1778058185 | 13.33° C | 94% | 1014 hPa | 0 mm | - | 0 W/m² | - |
| 1778057578 | 13.33° C | 94% | 1014 hPa | 0 mm | - | 0 W/m² | - |
| 1778056971 | 13.33° C | 94% | 1014 hPa | 0 mm | - | 0 W/m² | - |
| 1778056668 | 13.33° C | 93% | 1013.8 hPa | 0 mm | - | 0 W/m² | - |
| 1778056366 | 13.33° C | 93% | 1014.1 hPa | 0 mm | - | 0 W/m² | - |
| 1778056063 | 13.33° C | 93% | 1014 hPa | 0 mm | - | 0 W/m² | - |
| 1778055758 | 13.33° C | 93% | 1014 hPa | 0 mm | - | 0 W/m² | - |
| 1778054852 | 13.33° C | 93% | 1014.2 hPa | 0 mm | - | 0 W/m² | - |
| 1778053640 | 13.33° C | 93% | 1014.2 hPa | 0 mm | - | 0 W/m² | - |
| 1778053337 | 13.33° C | 93% | 1014.1 hPa | 0 mm | - | 0 W/m² | - |
| 1778052732 | 13.33° C | 92% | 1014.2 hPa | 0 mm | - | 0 W/m² | - |
* Rain latest hour (hover to see other rain measurements)
** Current wind speed in m/s (hover to see current wind gust speed)